GW5592 Weather Reports


time (UTC)temp
C
wind
direction
speed
KPH
gust
KPH
rain 1hr
cm
rain 24hr
cm
rain mn
cm
humidity
%
barometer
mb
20260504034507 11 38 0.0 0.0 0.00 0.00 0.00 81 1014.9
20260504034004 11 38 0.0 0.0 0.00 0.00 0.00 80 1014.8
20260504033508 11 38 0.0 1.6 0.00 0.00 0.00 80 1014.8
20260504033013 11 38 0.0 1.6 0.00 0.00 0.00 79 1014.8
20260504032504 11 56 0.0 0.0 0.00 0.00 0.00 78 1014.8
20260504032009 12 168 0.0 0.0 0.00 0.00 0.00 78 1014.9
20260504031520 12 168 0.0 1.6 0.00 0.00 0.00 78 1015.0
20260504031008 12 168 0.0 3.2 0.00 0.00 0.00 79 1014.9
20260504030506 11 167 0.0 1.6 0.00 0.00 0.00 79 1015.0
20260504030023 11 155 0.0 0.0 0.00 0.00 0.00 78 1015.0
20260504025507 12 155 0.0 0.0 0.00 0.00 0.00 78 1015.1
20260504025006 12 144 0.0 0.0 0.00 0.00 0.00 78 1015.0
20260504024524 12 143 0.0 0.0 0.00 0.00 0.00 78 1015.1
20260504024007 11 143 0.0 1.6 0.00 0.00 0.00 78 1015.0
20260504023503 11 143 0.0 1.6 0.00 0.00 0.00 78 1015.1
20260504023008 12 161 0.0 0.0 0.00 0.00 0.00 77 1015.2
20260504022504 12 161 0.0 0.0 0.00 0.00 0.00 77 1015.1
20260504022007 12 167 0.0 0.0 0.00 0.00 0.00 76 1015.1
20260504021513 12 171 0.0 0.0 0.00 0.00 0.00 76 1015.2
20260504021005 12 171 0.0 0.0 0.00 0.00 0.00 76 1015.2
20260504020508 12 171 0.0 0.0 0.00 0.00 0.00 76 1015.1
20260504020021 12 171 0.0 0.0 0.00 0.00 0.00 75 1015.2
20260504015508 13 171 0.0 1.6 0.00 0.00 0.00 75 1015.2
20260504015008 13 171 0.0 3.2 0.00 0.00 0.00 75 1015.2
20260504014524 13 171 0.0 4.8 0.00 0.00 0.00 75 1015.2
20260504014006 12 167 0.0 4.8 0.00 0.00 0.00 75 1015.2
20260504013508 13 167 0.0 3.2 0.00 0.00 0.00 75 1015.3
20260504013034 13 172 0.0 3.2 0.00 0.00 0.00 74 1015.3
20260504012504 13 172 0.0 3.2 0.00 0.00 0.00 74 1015.2
20260504012007 13 186 1.6 3.2 0.00 0.00 0.00 74 1015.3
20260504011509 13 148 0.0 0.0 0.00 0.00 0.00 74 1015.4
20260504011008 13 148 0.0 0.0 0.00 0.00 0.00 73 1015.5
20260504010505 13 148 0.0 3.2 0.00 0.00 0.00 73 1015.6
20260504010016 13 148 0.0 3.2 0.00 0.00 0.00 73 1015.6
20260504005505 13 161 0.0 1.6 0.00 0.00 0.00 73 1015.6
20260504005010 13 190 0.0 1.6 0.00 0.00 0.00 73 1015.6
20260504004522 13 202 0.0 1.6 0.00 0.00 0.00 73 1015.7
20260504004010 13 191 0.0 3.2 0.00 0.00 0.00 73 1015.7
20260504003509 13 205 0.0 3.2 0.00 0.00 0.00 73 1015.7
20260504003025 13 161 0.0 3.2 0.00 0.00 0.00 72 1015.7
20260504002509 13 157 0.0 3.2 0.00 0.00 0.00 72 1015.8
20260504002009 13 96 0.0 3.2 0.00 0.00 0.00 71 1015.9
20260504001510 13 186 0.0 3.2 0.00 0.00 0.00 72 1016.0
20260504001005 14 186 0.0 3.2 0.00 0.00 0.00 71 1016.0
20260504000506 14 184 0.0 3.2 0.00 0.00 0.00 71 1016.0
20260504000015 14 163 0.0 3.2 0.00 0.00 0.00 71 1016.0
20260503235506 14 163 0.0 3.2 0.00 0.00 0.00 70 1016.0
20260503235007 14 191 0.0 3.2 0.00 0.00 0.00 68 1016.0
20260503234520 15 188 0.0 3.2 0.00 0.00 0.00 68 1016.0
20260503234013 15 188 0.0 1.6 0.00 0.00 0.00 67 1016.0
20260503233510 15 188 0.0 1.6 0.00 0.00 0.00 68 1016.1
20260503233026 15 220 0.0 1.6 0.00 0.00 0.00 67 1016.2
20260503232508 14 249 0.0 3.2 0.00 0.00 0.00 68 1016.2
20260503232016 14 249 0.0 3.2 0.00 0.00 0.00 67 1016.1
20260503231526 14 290 0.0 3.2 0.00 0.00 0.00 67 1016.1
20260503231012 14 262 1.6 6.4 0.00 0.00 0.00 67 1016.0
20260503230508 14 273 0.0 6.4 0.00 0.00 0.00 67 1016.1
20260503230013 15 292 3.2 4.8 0.00 0.00 0.00 66 1016.0
20260503225506 15 300 1.6 3.2 0.00 0.00 0.00 65 1015.9
20260503225006 15 298 0.0 4.8 0.00 0.00 0.00 66 1015.9
20260503224518 15 257 3.2 4.8 0.00 0.00 0.00 64 1015.9
20260503224016 15 263 0.0 0.0 0.00 0.00 0.00 63 1016.0
20260503223508 15 281 0.0 0.0 0.00 0.00 0.00 63 1016.0
20260503223021 15 273 0.0 3.2 0.00 0.00 0.00 62 1016.0
20260503222511 15 276 0.0 3.2 0.00 0.00 0.00 62 1016.0
20260503222008 15 263 1.6 3.2 0.00 0.00 0.00 62 1016.0
20260503221531 15 292 1.6 3.2 0.00 0.00 0.00 62 1016.0
20260503221011 16 300 1.6 3.2 0.00 0.00 0.00 62 1016.0
20260503220509 16 288 0.0 3.2 0.00 0.00 0.00 62 1016.0
20260503220026 16 300 0.0 4.8 0.00 0.00 0.00 60 1015.9
20260503215510 16 336 0.0 8.0 0.00 0.00 0.00 59 1016.0
20260503215008 16 336 3.2 8.0 0.00 0.00 0.00 59 1015.9
20260503214516 16 314 1.6 6.4 0.00 0.00 0.00 60 1015.9
20260503214008 16 304 1.6 6.4 0.00 0.00 0.00 59 1015.9
20260503213506 16 317 3.2 6.4 0.00 0.00 0.00 59 1015.9
20260503213029 16 319 1.6 6.4 0.00 0.00 0.00 61 1015.9
20260503212508 16 311 1.6 6.4 0.00 0.00 0.00 61 1015.9
20260503212009 16 305 3.2 6.4 0.00 0.00 0.00 63 1015.9
20260503211525 16 310 0.0 4.8 0.00 0.00 0.00 68 1015.8
20260503211009 16 25 0.0 3.2 0.00 0.00 0.00 67 1015.8
20260503210509 16 36 0.0 0.0 0.00 0.00 0.00 67 1015.7
20260503210024 16 76 0.0 1.6 0.00 0.00 0.00 66 1015.6
20260503205503 16 63 0.0 1.6 0.00 0.00 0.00 66 1015.6
20260503205008 16 30 0.0 1.6 0.00 0.00 0.00 66 1015.7
20260503204511 16 279 0.0 3.2 0.00 0.00 0.00 65 1015.6
20260503204004 16 279 0.0 3.2 0.00 0.00 0.00 64 1015.5
20260503203506 16 280 1.6 3.2 0.00 0.00 0.00 65 1015.5
20260503203017 16 300 0.0 3.2 0.00 0.00 0.00 68 1015.4
20260503202509 16 304 0.0 3.2 0.00 0.00 0.00 66 1015.4
20260503202002 16 167 0.0 0.0 0.00 0.00 0.00 64 1015.3
20260503201509 16 167 0.0 1.6 0.00 0.00 0.00 64 1015.2
20260503201002 17 167 0.0 1.6 0.00 0.00 0.00 64 1015.2
20260503200503 17 220 0.0 1.6 0.00 0.00 0.00 61 1015.1
20260503200010 17 327 0.0 3.2 0.00 0.00 0.00 61 1015.1
20260503195503 17 327 0.0 4.8 0.00 0.00 0.00 62 1014.9
20260503195003 17 336 1.6 4.8 0.00 0.00 0.00 62 1014.9
20260503194510 17 298 0.0 6.4 0.00 0.00 0.00 61 1014.8
20260503194008 17 306 1.6 6.4 0.00 0.00 0.00 62 1014.6
20260503193506 17 336 1.6 4.8 0.00 0.00 0.00 62 1014.5
20260503193018 17 329 3.2 4.8 0.00 0.00 0.00 62 1014.4
20260503192506 17 5 1.6 6.4 0.00 0.00 0.00 62 1014.3
20260503192010 17 360 1.6 6.4 0.00 0.00 0.00 1014.3
20260503191522 17 352 0.0 6.4 0.00 0.00 0.00 1014.3
20260503191010 17 329 1.6 6.4 0.00 0.00 0.00 60 1014.3
20260503190504 18 340 4.8 8.0 0.00 0.00 0.00 60 1014.3
20260503190002 18 288 3.2 8.0 0.00 0.00 0.00 60 1014.3
20260503185502 18 329 3.2 11.3 0.00 0.00 0.00 60 1014.2
20260503185003 18 281 4.8 11.3 0.00 0.00 0.00 59 1014.1
20260503184509 18 286 3.2 11.3 0.00 0.00 0.00 59 1014.1
20260503184010 18 339 3.2 11.3 0.00 0.00 0.00 58 1014.1
20260503183510 18 265 3.2 12.9 0.00 0.00 0.00 57 1014.1
20260503183023 18 306 6.4 14.5 0.00 0.00 0.00 57 1014.0
20260503182503 19 327 6.4 14.5 0.00 0.00 0.00 56 1014.0
20260503182007 19 284 9.7 14.5 0.00 0.00 0.00 55 1014.1
20260503181528 19 296 4.8 14.5 0.00 0.00 0.00 54 1014.1
20260503181007 20 279 4.8 17.7 0.00 0.00 0.00 54 1014.1
20260503180507 20 304 11.3 17.7 0.00 0.00 0.00 54 1014.0
20260503180022 20 242 8.0 16.1 0.00 0.00 0.00 55 1014.0
20260503175503 20 277 6.4 19.3 0.00 0.00 0.00 54 1014.0
20260503175004 20 287 8.0 19.3 0.00 0.00 0.00 53 1014.0
20260503174503 20 264 8.0 19.3 0.00 0.00 0.00 52 1014.0
20260503174006 20 237 4.8 20.9 0.00 0.00 0.00 53 1014.0
20260503173503 21 271 4.8 20.9 0.00 0.00 0.00 52 1013.8
20260503173028 21 241 8.0 16.1 0.00 0.00 0.00 53 1013.9
20260503172506 20 244 8.0 20.9 0.00 0.00 0.00 54 1013.8
20260503172007 20 285 8.0 20.9 0.00 0.00 0.00 53 1013.8
20260503171514 21 240 11.3 20.9 0.00 0.00 0.00 51 1013.8
20260503171008 21 284 6.4 17.7 0.00 0.00 0.00 53 1013.7
20260503170505 20 225 9.7 19.3 0.00 0.00 0.00 52 1013.7
20260503151003 22 240 4.8 16.1 0.00 0.00 0.00 44 1014.0
20260503150510 22 234 8.0 16.1 0.00 0.00 0.00 40 1014.0
20260503131010 21 252 11.3 19.3 0.00 0.00 0.00 51 1014.9
20260503130508 20 246 11.3 19.3 0.00 0.00 0.00 51 1014.8
20260503110502 18 213 3.2 11.3 0.00 0.00 0.00 69 1016.2
20260503090508 17 164 3.2 9.7 0.00 0.00 0.00 75 1016.7
20260503081519 16 211 1.6 8.0 0.00 0.00 0.00 78 1016.8
20260503081008 16 223 1.6 8.0 0.00 0.00 0.00 78 1016.7
20260503080506 16 204 1.6 11.3 0.00 0.00 0.00 78 1016.8
20260503072507 15 209 0.0 4.8 0.00 0.00 0.00 81 1016.7
20260503072007 15 224 1.6 4.8 0.00 0.00 0.00 81 1016.7
20260503071524 15 238 0.0 8.0 0.00 0.00 0.00 81 1016.6
20260503071006 15 238 4.8 8.0 0.00 0.00 0.00 81 1016.8
20260503070506 15 236 3.2 6.4 0.00 0.00 0.00 81 1016.8
20260503055005 15 262 0.0 3.2 0.00 0.00 0.00 81 1016.2
20260503054525 15 257 0.0 3.2 0.00 0.00 0.00 81 1016.1
20260503054013 15 268 0.0 3.2 0.00 0.00 0.00 81 1016.0
20260503053509 15 246 1.6 6.4 0.00 0.00 0.00 81 1016.0
20260503053036 15 200 3.2 8.0 0.00 0.00 0.00 81 1015.9
20260503052508 15 163 1.6 8.0 0.00 0.00 0.00 81 1015.7
20260503052010 15 196 0.0 4.8 0.00 0.00 0.00 81 1015.7
20260503051529 15 164 0.0 4.8 0.00 0.00 0.00 81 1015.7
20260503051014 15 203 0.0 3.2 0.00 0.00 0.00 81 1015.9
20260503050506 15 205 0.0 4.8 0.00 0.00 0.00 81 1015.9
20260503050018 15 235 0.0 4.8 0.00 0.00 0.00 81 1016.0
20260503045510 15 219 0.0 0.0 0.00 0.00 0.00 80 1016.0
20260503045007 15 206 0.0 0.0 0.00 0.00 0.00 80 1016.0
20260503044553 15 281 0.0 0.0 0.00 0.00 0.00 80 1016.0
20260503044009 15 281 0.0 0.0 0.00 0.00 0.00 79 1015.7
20260503043509 15 281 0.0 0.0 0.00 0.00 0.00 79 1015.9
20260503043026 15 281 0.0 0.0 0.00 0.00 0.00 79 1016.0
20260503042511 15 281 0.0 0.0 0.00 0.00 0.00 79 1016.0
20260503042011 15 281 0.0 0.0 0.00 0.00 0.00 79 1016.1
20260503041526 15 281 0.0 0.0 0.00 0.00 0.00 79 1016.2
20260503041009 15 281 0.0 1.6 0.00 0.00 0.00 79 1016.3
20260503040513 15 294 0.0 1.6 0.00 0.00 0.00 79 1016.4
20260503040030 15 300 0.0 0.0 0.00 0.00 0.00 79 1016.4
20260503035507 15 302 0.0 3.2 0.00 0.00 0.00 79 1016.4
20260503035007 15 280 1.6 3.2 0.00 0.00 0.00 79 1016.4